Starlink 31625

operational
NORAD ID: 59458 Int'l Des: 2024-068 Owner: SPXS Country: US Constellation: starlink
LEOCIRCULAR

Starlink 31625について

説明を読み込み中...

リアルタイム位置

3D地球を読み込み中...

次回通過

高度履歴

Altitude vs Time

uPlot chart will show altitude changes over time

軌道要素

1 59458U 24068D 25351.11839573 .00005536 00000-0 21036-3 0 9998
2 59458 42.9995 140.9110 0001563 277.8804 82.1870 15.27610423 95896
Epoch: Dec 17, 2025 • Age: 13 hours

現在のステータス

高度 482.0 km
速度 7.63 km/s
衛星直下点 7.94°N, 171.71°W
打ち上げ日 Apr 10, 2024
運用期間 1.6 years
タイプ internet

技術仕様

分類 Payload
質量 730.00 kg
乾燥質量 700.00 kg
総質量 730.00 kg
長さ 0.30 m
直径 4.10 m
スパン 29.00 m
形状 Box + pan
製造者 SPXS
バスタイプ Starlink V2M
フェーズステータス In Orbit
所有者/国 SPXS/US

大規模コンステレーション

Loading constellations...